Satellite: PO-28
Catalog number: 22829
Epoch time:      08185.89192965
Element set:     984
Inclination:      098.3651 deg
RA of node:       147.2915 deg
Eccentricity:    0.0009639
Arg of perigee:   174.3967 deg
Mean anomaly:     185.7350 deg
Mean motion:   14.30193268 rev/day
Decay rate:       2.17e-06 rev/day^2
Epoch rev:           77051
Checksum:              356

Satellite: GO-32
Catalog number: 25397
Epoch time:      08184.85932827
Element set:    0639
Inclination:      098.3632 deg
RA of node:       219.2469 deg
Eccentricity:    0.0001228
Arg of perigee:   149.4342 deg
Mean anomaly:     210.6887 deg
Mean motion:   14.23145652 rev/day
Decay rate:        8.5e-07 rev/day^2
Epoch rev:           51844
Checksum:              329

Satellite: NO-44
Catalog number: 26931
Epoch time:      08184.67779430
Element set:    0919
Inclination:      067.0524 deg
RA of node:       244.7501 deg
Eccentricity:    0.0007084
Arg of perigee:   272.2461 deg
Mean anomaly:     087.7826 deg
Mean motion:   14.29527155 rev/day
Decay rate:       1.09e-06 rev/day^2
Epoch rev:           35262
Checksum:              319

Satellite: SO-50
Catalog number: 27607
Epoch time:      08184.97884525
Element set:     641
Inclination:      064.5590 deg
RA of node:       005.6802 deg
Eccentricity:    0.0086066
Arg of perigee:   276.5626 deg
Mean anomaly:     082.5694 deg
Mean motion:   14.71365848 rev/day
Decay rate:        1.9e-07 rev/day^2
Epoch rev:           29729
Checksum:              348

Satellite: CO-55
Catalog number: 27844
Epoch time:      08184.65034382
Element set:     341
Inclination:      098.7151 deg
RA of node:       192.7018 deg
Eccentricity:    0.0011075
Arg of perigee:   072.6039 deg
Mean anomaly:     287.6347 deg
Mean motion:   14.20585995 rev/day
Decay rate:        1.5e-07 rev/day^2
Epoch rev:           25963
Checksum:              322

Satellite: CO-57
Catalog number: 27848
Epoch time:      08185.56626858
Element set:     293
Inclination:      098.7153 deg
RA of node:       192.6972 deg
Eccentricity:    0.0010754
Arg of perigee:   072.6903 deg
Mean anomaly:     287.5473 deg
Mean motion:   14.20395027 rev/day
Decay rate:        3.9e-07 rev/day^2
Epoch rev:           25973
Checksum:              354

Satellite: AO-51
Catalog number: 28375
Epoch time:      08184.81533105
Element set:     138
Inclination:      098.0695 deg
RA of node:       208.5057 deg
Eccentricity:    0.0084733
Arg of perigee:   104.8281 deg
Mean anomaly:     256.2310 deg
Mean motion:   14.40612498 rev/day
Decay rate:        7.0e-08 rev/day^2
Epoch rev:           21065
Checksum:              294

Satellite: CO-56
Catalog number: 28941
Epoch time:      08185.77359215
Element set:     185
Inclination:      098.1083 deg
RA of node:       298.7592 deg
Eccentricity:    0.0162358
Arg of perigee:   341.1511 deg
Mean anomaly:     018.3656 deg
Mean motion:   15.57923605 rev/day
Decay rate:     1.0168e-04 rev/day^2
Epoch rev:           13262
Checksum:              332

Satellite: CP4
Catalog number: 31122
Epoch time:      08185.73384958
Element set:     378
Inclination:      098.0399 deg
RA of node:       250.7140 deg
Eccentricity:    0.0083805
Arg of perigee:   277.2481 deg
Mean anomaly:     081.9167 deg
Mean motion:   14.55139006 rev/day
Decay rate:       5.49e-06 rev/day^2
Epoch rev:            6448
Checksum:              327

Satellite: CP3
Catalog number: 31128
Epoch time:      08185.73633459
Element set:     370
Inclination:      098.0370 deg
RA of node:       248.4749 deg
Eccentricity:    0.0101355
Arg of perigee:   283.7454 deg
Mean anomaly:     075.2472 deg
Mean motion:   14.51956699 rev/day
Decay rate:       -4.8e-07 rev/day^2
Epoch rev:            6433
Checksum:              324

/EX
SB KEPS @ AMSAT  $ORB08185.W
Orbital Elements  08185.WEATHER

HR AMSAT ORBITAL ELEMENTS FOR WEATHER SATELLITES
FROM WA5QGD FORT WORTH,TX July 3, 2008
Send Subscribe/unsubscribe to KEPS at 
http://www.amsat.org/mailman/listinfo/keps
BID: ORB08185.W
TO ALL RADIO AMATEURS BT

Satellite: NOAA-10
Catalog number: 16969
Epoch time:      08185.13722612
Element set:     181
Inclination:      098.7208 deg
RA of node:       207.0743 deg
Eccentricity:    0.0012907
Arg of perigee:   131.6995 deg
Mean anomaly:     228.5292 deg
Mean motion:   14.27363243 rev/day
Decay rate:        3.1e-07 rev/day^2
Epoch rev:           13371
Checksum:              293

Satellite: NOAA-11
Catalog number: 19531
Epoch time:      08185.29119030
Element set:     219
Inclination:      098.7982 deg
RA of node:       274.3921 deg
Eccentricity:    0.0011956
Arg of perigee:   026.3243 deg
Mean anomaly:     333.8543 deg
Mean motion:   14.14873170 rev/day
Decay rate:       1.81e-06 rev/day^2
Epoch rev:            2018
Checksum:              289

Satellite: NOAA-12
Catalog number: 21263
Epoch time:      08185.55591256
Element set:     736
Inclination:      098.7656 deg
RA of node:       187.5054 deg
Eccentricity:    0.0013545
Arg of perigee:   079.1835 deg
Mean anomaly:     281.0886 deg
Mean motion:   14.25536757 rev/day
Decay rate:      -1.01e-06 rev/day^2
Epoch rev:           89072
Checksum:              332

